COSMOS 1275 DEB, 12711

Orbit data source: Space-Track

COSMOS 1275 DEB, 12711 is space debris in LEO originally from a launch on Thu, 04 Jun 1981 UTC launched from the Plesetsk Missile And Space Complex (PKMTR). Debris objects in space refer to the collection of defunct objects orbiting the Earth. Examples of debris include non-operational satellites, rocket bodies, and fragments generated from explosions, collisions, or faulty payload assembly.

Loading next visibility...
Identifier
12711, 1981-053BF
Orbit
LEO
Country
Flag of CISCIS
Related business
Manufacturer
Unknown
Mission
Spacecraft
Bus & Motor
Unknown
Mass
Unknown
Launch date (UTC)
1981-06-04 (44 years ago)
Launch vehicle
Unknown
Launch site
Plesetsk Missile And Space Complex (PKMTR)
Object type
Payload
Rocket body
Debris
Shape & HBR
Unknown shape, 0.1 m
Radar Cross Section
Small (<0.1 m²)

Expand to show TLE details & history
Last TLE update: 16 hours ago

TLE from 16 hours ago
0 COSMOS 1275 DEB
1 12711U 81053BF  25298.20388419  .00000720  00000-0  72857-3 0  9991
2 12711  82.9661 192.7574 0064697  73.8084  53.7678 13.74893481210965
Epoch: 2025-10-25T04:53Z
TLE epoch observation values (Epoch: 2025-10-25T04:53:35.594Z)
Latitude
51.37547°
Longitude
-103.31556°
Altitude
962.374 km
Speed
7.389 km/s
True Right ascension
00h 15m 40s
True Declination
51° 12' 44"
Sunlit
Object was in full shadow at epoch
Visualization orbit readout
Latitude
Unknown
Longitude
Unknown
Altitude
Unknown
Speed
Unknown
Apparent Right ascension
Unknown
Apparent Declination
Unknown
Sunlit
N/A
Visualization observer readout
Local Sidereal Time
16:06:17
Azimuth
Unknown
Elevation
Unknown
Doppler factor
Unknown
Orbital elements
Apogee altitude
1,026.803 km
Perigee altitude
931.603 km
Semi-major axis
7,357.34 km
Eccentricity
0.00647
Inclination
82.9661°
RAAN
192.7574°
Arg. of periapsis
73.8084°
True anomaly
54.36867°
Mean anomaly
53.7678°
Eccentric anomaly
54.06795°
Mean motion
3.43924 °/min
Orbital period
104.67 mins
BSTAR
0.00072857
Loading maneuver chart data...
Computing Atmospheric mass density...

Documentation

Showing up to 5 results
|